Time,TemperatureF,DewpointF,PressureIn,WindDirection,WindDirectionDegrees,WindSpeedMPH,WindSpeedGustMPH,Humidity,HourlyPrecipIn,Conditions,Clouds,dailyrainin,SoftwareType,DateUTC
2013-08-22 00:14:00,70.0,68.0,30.05,SW,224,0.0,2.0,93,0.00,,,0.00,,2013-08-22 04:14:00,
2013-08-22 00:23:00,70.0,68.0,30.04,SW,221,0.0,3.0,94,0.00,,,0.00,,2013-08-22 04:23:00,
2013-08-22 00:44:00,70.0,68.0,30.03,SSW,208,0.0,2.0,94,0.00,,,0.00,,2013-08-22 04:44:00,
2013-08-22 00:54:00,70.0,68.0,30.03,SSW,208,0.0,0.0,94,0.00,,,0.00,,2013-08-22 04:54:00,
2013-08-22 01:13:00,69.0,67.0,30.03,SSW,211,0.0,4.0,94,0.00,,,0.00,,2013-08-22 05:13:00,
2013-08-22 01:23:00,69.0,68.0,30.04,SSW,211,0.0,2.0,95,0.00,,,0.00,,2013-08-22 05:23:00,
2013-08-22 01:43:00,69.0,68.0,30.04,SSW,211,0.0,2.0,95,0.00,,,0.00,,2013-08-22 05:43:00,
2013-08-22 01:52:00,69.0,68.0,30.04,SW,234,0.0,3.0,95,0.00,,,0.00,,2013-08-22 05:52:00,
2013-08-22 02:12:00,69.0,68.0,30.04,SW,234,0.0,1.0,95,0.00,,,0.00,,2013-08-22 06:12:00,
2013-08-22 02:22:00,69.0,68.0,30.04,SW,220,0.0,2.0,95,0.00,,,0.00,,2013-08-22 06:22:00,
2013-08-22 02:42:00,69.0,68.0,30.04,SW,215,0.0,1.0,95,0.00,,,0.00,,2013-08-22 06:42:00,
2013-08-22 02:52:00,69.0,68.0,30.05,SW,215,0.0,2.0,95,0.00,,,0.00,,2013-08-22 06:52:00,
2013-08-22 03:12:00,69.0,68.0,30.06,SW,215,0.0,1.0,96,0.00,,,0.00,,2013-08-22 07:12:00,
2013-08-22 03:22:00,69.0,68.0,30.06,SW,215,0.0,1.0,96,0.00,,,0.00,,2013-08-22 07:22:00,
2013-08-22 03:42:00,69.0,68.0,30.06,SW,229,0.0,5.0,96,0.00,,,0.00,,2013-08-22 07:42:00,
2013-08-22 03:52:00,69.0,68.0,30.06,WSW,243,1.0,5.0,96,0.00,,,0.00,,2013-08-22 07:52:00,
2013-08-22 04:12:00,69.0,68.0,30.05,West,263,2.0,9.0,95,0.00,,,0.00,,2013-08-22 08:12:00,
2013-08-22 04:22:00,69.0,67.0,30.05,NW,316,0.0,3.0,94,0.00,,,0.00,,2013-08-22 08:22:00,
2013-08-22 04:43:00,70.0,68.0,30.04,WNW,300,0.0,7.0,94,0.00,,,0.00,,2013-08-22 08:43:00,
2013-08-22 04:53:00,70.0,68.0,30.04,WSW,247,0.0,0.0,94,0.00,,,0.00,,2013-08-22 08:53:00,
2013-08-22 05:11:00,69.0,67.0,30.02,WSW,247,0.0,2.0,94,0.00,,,0.00,,2013-08-22 09:11:00,
2013-08-22 05:22:00,69.0,68.0,29.99,SSE,153,0.0,4.0,95,0.00,,,0.00,,2013-08-22 09:22:00,
2013-08-22 05:43:00,69.0,68.0,29.97,SW,232,2.0,5.0,95,0.00,,,0.00,,2013-08-22 09:43:00,
2013-08-22 05:53:00,69.0,68.0,29.98,SW,230,4.0,9.0,95,0.00,,,0.00,,2013-08-22 09:53:00,
2013-08-22 06:12:00,69.0,68.0,29.99,WSW,253,0.0,6.0,95,0.00,,,0.00,,2013-08-22 10:12:00,
2013-08-22 06:23:00,68.0,67.0,29.99,WSW,246,0.0,3.0,95,0.00,,,0.00,,2013-08-22 10:23:00,
2013-08-22 06:24:00,68.0,67.0,30.02,WSW,246,0.0,1.0,96,0.00,,,0.00,,2013-08-22 10:24:00,
2013-08-22 06:42:00,68.0,67.0,30.01,WSW,246,0.0,1.0,96,0.00,,,0.00,,2013-08-22 10:42:00,
2013-08-22 08:42:00,68.0,67.0,30.05,WSW,246,0.0,0.0,98,0.00,,,0.00,,2013-08-22 12:42:00,
2013-08-22 08:52:00,68.0,67.0,30.05,WSW,246,0.0,0.0,98,0.00,,,0.00,,2013-08-22 12:52:00,
2013-08-22 09:12:00,69.0,68.0,30.05,WSW,246,0.0,0.0,98,0.00,,,0.00,,2013-08-22 13:12:00,
2013-08-22 09:22:00,69.0,68.0,30.05,WSW,246,0.0,0.0,97,0.00,,,0.00,,2013-08-22 13:22:00,
2013-08-22 09:52:00,71.0,69.0,30.04,WSW,246,0.0,2.0,94,0.00,,,0.00,,2013-08-22 13:52:00,
2013-08-22 10:11:00,73.0,70.0,30.04,WSW,246,0.0,4.0,91,0.00,,,0.00,,2013-08-22 14:11:00,
2013-08-22 10:22:00,74.0,71.0,30.04,SW,221,2.0,7.0,91,0.00,,,0.00,,2013-08-22 14:22:00,
2013-08-22 10:52:00,77.0,72.0,30.03,WSW,241,2.0,7.0,84,0.00,,,0.00,,2013-08-22 14:52:00,
2013-08-22 11:12:00,78.0,72.0,30.03,West,259,3.0,10.0,83,0.00,,,0.00,,2013-08-22 15:12:00,
2013-08-22 11:22:00,78.0,72.0,30.04,South,186,4.0,11.0,81,0.00,,,0.00,,2013-08-22 15:22:00,
2013-08-22 11:43:00,79.0,72.0,30.04,West,267,3.0,11.0,79,0.00,,,0.00,,2013-08-22 15:43:00,
2013-08-22 11:54:00,80.0,73.0,30.03,WNW,291,1.0,7.0,80,0.00,,,0.00,,2013-08-22 15:54:00,
2013-08-22 12:14:00,80.0,72.0,30.04,West,277,1.0,9.0,78,0.00,,,0.00,,2013-08-22 16:14:00,
2013-08-22 12:25:00,80.0,72.0,30.04,West,275,1.0,7.0,77,0.00,,,0.00,,2013-08-22 16:25:00,
2013-08-22 12:43:00,80.0,72.0,30.03,North,5,1.0,6.0,77,0.00,,,0.00,,2013-08-22 16:43:00,
2013-08-22 12:54:00,80.0,72.0,30.03,North,5,1.0,6.0,77,0.00,,,0.00,,2013-08-22 16:54:00,
2013-08-22 13:12:00,81.0,72.0,30.03,WSW,244,0.0,3.0,75,0.00,,,0.00,,2013-08-22 17:12:00,
2013-08-22 13:24:00,81.0,73.0,30.03,West,263,0.0,4.0,76,0.00,,,0.00,,2013-08-22 17:24:00,
2013-08-22 13:43:00,80.0,72.0,30.03,SW,227,0.0,4.0,76,0.00,,,0.00,,2013-08-22 17:43:00,
2013-08-22 13:53:00,79.0,72.0,30.03,West,271,0.0,6.0,78,0.00,,,0.00,,2013-08-22 17:53:00,
2013-08-22 14:12:00,78.0,71.0,30.03,West,269,0.0,4.0,80,0.00,,,0.00,,2013-08-22 18:12:00,
2013-08-22 14:22:00,78.0,72.0,30.03,NW,304,1.0,6.0,81,0.00,,,0.00,,2013-08-22 18:22:00,
2013-08-22 14:43:00,78.0,73.0,30.03,WSW,238,1.0,6.0,84,0.01,,,0.01,,2013-08-22 18:43:00,
2013-08-22 14:52:00,76.0,73.0,30.03,SW,236,0.0,5.0,89,0.01,,,0.01,,2013-08-22 18:52:00,
2013-08-22 15:11:00,76.0,73.0,30.03,WSW,245,1.0,5.0,90,0.01,,,0.01,,2013-08-22 19:11:00,
2013-08-22 15:22:00,76.0,73.0,30.03,West,264,0.0,5.0,90,0.01,,,0.01,,2013-08-22 19:22:00,
2013-08-22 15:42:00,76.0,73.0,30.03,West,276,0.0,6.0,91,0.00,,,0.01,,2013-08-22 19:42:00,
2013-08-22 15:53:00,76.0,73.0,30.02,West,271,0.0,3.0,90,0.00,,,0.01,,2013-08-22 19:53:00,
2013-08-22 16:12:00,76.0,73.0,30.01,WSW,244,2.0,6.0,89,0.00,,,0.01,,2013-08-22 20:12:00,
2013-08-22 16:23:00,76.0,73.0,30.00,WSW,241,0.0,6.0,90,0.00,,,0.01,,2013-08-22 20:23:00,
2013-08-22 16:42:00,75.0,72.0,30.01,WSW,257,4.0,12.0,90,0.00,,,0.01,,2013-08-22 20:42:00,
2013-08-22 16:52:00,72.0,70.0,30.03,West,266,2.0,15.0,92,0.31,,,0.32,,2013-08-22 20:52:00,
2013-08-22 17:13:00,70.0,68.0,30.03,WSW,258,0.0,5.0,95,0.33,,,0.34,,2013-08-22 21:13:00,
2013-08-22 17:22:00,70.0,69.0,30.02,WSW,247,0.0,4.0,96,0.34,,,0.35,,2013-08-22 21:22:00,
2013-08-22 17:44:00,70.0,69.0,30.02,West,277,0.0,5.0,97,0.34,,,0.35,,2013-08-22 21:44:00,
2013-08-22 17:54:00,70.0,69.0,30.02,West,265,0.0,1.0,97,0.05,,,0.38,,2013-08-22 21:54:00,
2013-08-22 18:13:00,70.0,69.0,30.02,West,276,0.0,3.0,98,0.04,,,0.38,,2013-08-22 22:13:00,
2013-08-22 18:25:00,70.0,69.0,30.02,NW,324,0.0,4.0,98,0.04,,,0.39,,2013-08-22 22:25:00,
2013-08-22 18:42:00,70.0,69.0,30.02,North,350,0.0,1.0,98,0.04,,,0.39,,2013-08-22 22:42:00,
2013-08-22 18:53:00,70.0,69.0,30.02,North,350,2.0,6.0,98,0.01,,,0.39,,2013-08-22 22:53:00,
2013-08-22 19:12:00,69.0,68.0,30.02,NNE,26,0.0,8.0,97,0.01,,,0.39,,2013-08-22 23:12:00,
2013-08-22 19:23:00,69.0,68.0,30.01,NNW,334,0.0,5.0,97,0.00,,,0.39,,2013-08-22 23:23:00,
2013-08-22 19:42:00,69.0,68.0,29.99,NNW,339,0.0,1.0,97,0.00,,,0.39,,2013-08-22 23:42:00,
2013-08-22 19:52:00,68.0,67.0,29.98,NNE,15,1.0,5.0,97,0.00,,,0.39,,2013-08-22 23:52:00,
2013-08-22 20:12:00,68.0,67.0,29.98,NNW,342,0.0,0.0,97,0.00,,,0.39,,2013-08-23 00:12:00,
2013-08-22 20:23:00,68.0,67.0,29.98,NNW,342,0.0,0.0,97,0.00,,,0.39,,2013-08-23 00:23:00,
2013-08-22 20:42:00,68.0,67.0,29.97,NNW,342,0.0,0.0,98,0.00,,,0.39,,2013-08-23 00:42:00,
2013-08-22 20:52:00,68.0,67.0,29.98,NNW,342,0.0,0.0,98,0.00,,,0.39,,2013-08-23 00:52:00,
2013-08-22 21:11:00,68.0,67.0,29.98,NNW,342,0.0,0.0,98,0.00,,,0.39,,2013-08-23 01:11:00,
2013-08-22 21:22:00,68.0,67.0,30.00,NNW,342,0.0,0.0,98,0.00,,,0.39,,2013-08-23 01:22:00,
2013-08-22 21:42:00,68.0,67.0,30.01,NW,306,0.0,1.0,98,0.00,,,0.39,,2013-08-23 01:42:00,
2013-08-22 21:52:00,67.0,66.0,30.01,NW,306,0.0,0.0,98,0.00,,,0.39,,2013-08-23 01:52:00,
2013-08-22 22:11:00,67.0,66.0,30.01,NW,306,0.0,0.0,98,0.00,,,0.39,,2013-08-23 02:11:00,
2013-08-22 22:23:00,67.0,66.0,30.02,NW,307,0.0,1.0,98,0.00,,,0.39,,2013-08-23 02:23:00,
2013-08-22 22:43:00,67.0,66.0,30.03,WNW,290,0.0,2.0,98,0.00,,,0.39,,2013-08-23 02:43:00,
2013-08-22 22:52:00,67.0,66.0,30.03,WNW,290,0.0,1.0,98,0.00,,,0.39,,2013-08-23 02:52:00,
2013-08-22 23:12:00,67.0,66.0,30.03,WNW,290,0.0,1.0,98,0.00,,,0.39,,2013-08-23 03:12:00,
2013-08-22 23:23:00,67.0,67.0,30.03,WNW,290,0.0,1.0,99,0.00,,,0.39,,2013-08-23 03:23:00,
2013-08-22 23:55:00,67.0,67.0,30.05,WNW,290,0.0,1.0,99,0.00,,,0.39,,2013-08-23 03:55:00,